Weather History for Sedona, AZ

Change the Weather History Date:

Tuesday, February 19, 2013

  Actual Average Record
Temperature  
Mean Temperature 50 °F -  
Max Temperature 59 °F 59 °F 69 °F (2014)
Min Temperature 41 °F 33 °F 32 °F (2011)
Degree Days  
Heating Degree Days 15    
Moisture  
Dew Point 19 °F    
Average Humidity 32    
Maximum Humidity 50    
Minimum Humidity 18    
Precipitation  
Precipitation 0.00 in - - ()
Sea Level Pressure  
Sea Level Pressure 29.83 in    
Wind  
Wind Speed 10 mph (SSE)    
Max Wind Speed 22 mph    
Max Gust Speed 30 mph    
Visibility 10 miles    
Events      
Averages and records for this station are not official NWS values.
T = Trace of Precipitation, MM = Missing Value Source: NWS Daily Summary

Daily Weather History Graph

Daily Weather History Graph

Search for Another Location

Airport:

Trip Planner

Search our weather history database for the weather conditions in past years. The results will help you decide how hot, cold, wet, or windy it might be!

Date:

Astronomy

Feb. 19, 2013 Rise Set
Actual Time 7:08 AM MST 6:14 PM MST
Civil Twilight 6:42 AM MST 6:39 PM MST
Nautical Twilight 6:13 AM MST 7:09 PM MST
Astronomical Twilight 5:43 AM MST 7:38 PM MST
Moon 12:55 PM MST (2/19) 2:35 AM MST (2/19)
Length of Visible Light 11h 57m
Length of Day
11h 06m
Waxing Gibbous, 68% of the Moon is Illuminated
Feb 19
Waxing Gibbous
Feb 25
Full
Mar 4
Last Quarter
Mar 11
New
Mar 19
First Quarter

Hourly Weather History & Observations

Time (MST) Temp. Windchill Dew Point Humidity Pressure Visibility Wind Dir Wind Speed Gust Speed Precip Events Conditions
12:15 AM 44.6 °F 39.2 °F 19.4 °F 37% 29.98 in 10.0 mi NE 10.4 mph - N/A   Clear
12:35 AM 44.6 °F 40.2 °F 19.4 °F 37% 29.97 in 10.0 mi NE 8.1 mph - N/A   Clear
12:55 AM 44.6 °F 40.2 °F 19.4 °F 37% 29.97 in 10.0 mi NE 8.1 mph - N/A   Clear
1:15 AM 44.6 °F 39.7 °F 17.6 °F 34% 29.97 in 10.0 mi NE 9.2 mph - N/A   Clear
1:35 AM 44.6 °F 39.7 °F 17.6 °F 34% 29.97 in 10.0 mi NE 9.2 mph - N/A   Clear
1:55 AM 44.6 °F 39.7 °F 17.6 °F 34% 29.96 in 10.0 mi NE 9.2 mph - N/A   Clear
2:15 AM 44.6 °F 39.2 °F 17.6 °F 34% 29.96 in 10.0 mi NE 10.4 mph - N/A   Clear
2:35 AM 42.8 °F 37.0 °F 17.6 °F 36% 29.95 in 10.0 mi NE 10.4 mph - N/A   Clear
2:55 AM 42.8 °F 38.0 °F 17.6 °F 36% 29.94 in 10.0 mi NE 8.1 mph - N/A   Clear
3:15 AM 42.8 °F 38.0 °F 17.6 °F 36% 29.93 in 10.0 mi NE 8.1 mph - N/A   Clear
3:35 AM 42.8 °F 38.0 °F 17.6 °F 36% 29.93 in 10.0 mi NE 8.1 mph - N/A   Clear
3:55 AM 42.8 °F 37.5 °F 19.4 °F 39% 29.92 in 10.0 mi NE 9.2 mph - N/A   Clear
4:15 AM 41.0 °F 34.7 °F 19.4 °F 42% 29.91 in 10.0 mi NNE 10.4 mph - N/A   Clear
4:35 AM 41.0 °F 34.7 °F 19.4 °F 42% 29.90 in 10.0 mi NNE 10.4 mph - N/A   Clear
4:55 AM 41.0 °F 34.3 °F 19.4 °F 42% 29.90 in 10.0 mi NNE 11.5 mph - N/A   Clear
5:15 AM 42.8 °F 37.0 °F 17.6 °F 36% 29.90 in 10.0 mi NE 10.4 mph - N/A   Clear
5:35 AM 41.0 °F 34.7 °F 19.4 °F 42% 29.89 in 10.0 mi NNE 10.4 mph - N/A   Clear
5:55 AM 42.8 °F 38.0 °F 17.6 °F 36% 29.89 in 10.0 mi NE 8.1 mph - N/A   Clear
6:15 AM 42.8 °F 39.3 °F 17.6 °F 36% 29.89 in 10.0 mi ENE 5.8 mph - N/A   Clear
6:35 AM 42.8 °F 40.1 °F 17.6 °F 36% 29.89 in 10.0 mi ENE 4.6 mph - N/A   Clear
6:55 AM 42.8 °F 41.1 °F 17.6 °F 36% 29.89 in 10.0 mi NE 3.5 mph - N/A   Clear
7:35 AM 41.0 °F - 19.4 °F 42% 29.89 in 10.0 mi Calm Calm - N/A   Clear
7:55 AM 42.8 °F - 19.4 °F 39% 29.90 in 10.0 mi Calm Calm - N/A   Clear
8:15 AM 46.4 °F 43.5 °F 21.2 °F 37% 29.91 in 10.0 mi SSE 5.8 mph - N/A   Clear
8:35 AM 50.0 °F - 23.0 °F 35% 29.91 in 10.0 mi ESE 4.6 mph - N/A   Clear
8:55 AM 50.0 °F - 23.0 °F 35% 29.91 in 10.0 mi Calm Calm - N/A   Clear
9:15 AM 50.0 °F - 23.0 °F 35% 29.90 in 10.0 mi Calm Calm - N/A   Clear
9:35 AM 50.0 °F - 21.2 °F 32% 29.89 in 10.0 mi South 5.8 mph - N/A   Clear
9:55 AM 50.0 °F - 21.2 °F 32% 29.89 in 10.0 mi South 8.1 mph - N/A   Clear
10:15 AM 50.0 °F - 19.4 °F 30% 29.89 in 10.0 mi South 12.7 mph 20.7 mph N/A   Clear
10:35 AM 50.0 °F - 21.2 °F 32% 29.89 in 10.0 mi South 10.4 mph - N/A   Clear
10:55 AM 51.8 °F - 21.2 °F 30% 29.88 in 10.0 mi SSE 12.7 mph - N/A   Clear
11:15 AM 51.8 °F - 19.4 °F 28% 29.87 in 10.0 mi South 18.4 mph 24.2 mph N/A   Clear
11:35 AM 53.6 °F - 21.2 °F 28% 29.87 in 10.0 mi South 13.8 mph 20.7 mph N/A   Clear
11:55 AM 57.2 °F - 19.4 °F 23% 29.85 in 10.0 mi SSE 16.1 mph 26.5 mph N/A   Clear
12:15 PM 57.2 °F - 19.4 °F 23% 29.85 in 10.0 mi South 12.7 mph 25.3 mph N/A   Clear
12:35 PM 59.0 °F - 19.4 °F 22% 29.83 in 10.0 mi South 20.7 mph 28.8 mph N/A   Clear
12:55 PM 59.0 °F - 19.4 °F 22% 29.82 in 10.0 mi South 12.7 mph 24.2 mph N/A   Clear
1:15 PM 59.0 °F - 19.4 °F 22% 29.80 in 10.0 mi South 18.4 mph 24.2 mph N/A   Clear
1:35 PM 59.0 °F - 17.6 °F 20% 29.79 in 10.0 mi South 20.7 mph 29.9 mph N/A   Clear
1:55 PM 59.0 °F - 17.6 °F 20% 29.79 in 10.0 mi South 17.3 mph 26.5 mph N/A   Clear
2:15 PM 59.0 °F - 17.6 °F 20% 29.78 in 10.0 mi South 18.4 mph 25.3 mph N/A   Clear
2:35 PM 57.2 °F - 15.8 °F 20% 29.76 in 10.0 mi South 21.9 mph 29.9 mph N/A   Clear
2:55 PM 57.2 °F - 14.0 °F 18% 29.76 in 10.0 mi SE 18.4 mph 23.0 mph N/A   Clear
3:15 PM 55.4 °F - 14.0 °F 20% 29.76 in 10.0 mi South 17.3 mph 28.8 mph N/A   Clear
3:35 PM 55.4 °F - 14.0 °F 20% 29.74 in 10.0 mi South 16.1 mph 26.5 mph N/A   Clear
3:55 PM 55.4 °F - 14.0 °F 20% 29.74 in 10.0 mi South 13.8 mph 26.5 mph N/A   Clear
4:15 PM 53.6 °F - 14.0 °F 21% 29.73 in 10.0 mi South 18.4 mph 26.5 mph N/A   Clear
5:35 PM 51.8 °F - 15.8 °F 24% 29.72 in 10.0 mi South 15.0 mph 21.9 mph N/A   Clear
6:15 PM 50.0 °F - 15.8 °F 26% 29.72 in 10.0 mi South 12.7 mph 18.4 mph N/A   Clear
6:35 PM 50.0 °F - 15.8 °F 26% 29.72 in 10.0 mi SSW 9.2 mph - N/A   Clear
6:55 PM 50.0 °F - 14.0 °F 24% 29.72 in 10.0 mi SSW 8.1 mph - N/A   Clear
7:15 PM 50.0 °F - 15.8 °F 26% 29.72 in 10.0 mi SSW 8.1 mph - N/A   Clear
7:35 PM 48.2 °F - 17.6 °F 30% 29.71 in 10.0 mi SW 8.1 mph - N/A   Clear
7:55 PM 46.4 °F 42.4 °F 17.6 °F 32% 29.71 in 10.0 mi WSW 8.1 mph - N/A   Clear
8:15 PM 46.4 °F 43.5 °F 17.6 °F 32% 29.70 in 10.0 mi SW 5.8 mph - N/A   Clear
8:35 PM 48.2 °F - 19.4 °F 32% 29.70 in 10.0 mi SSW 8.1 mph - N/A   Clear
8:55 PM 46.4 °F 41.5 °F 19.4 °F 34% 29.69 in 10.0 mi South 10.4 mph 17.3 mph N/A   Clear
9:15 PM 46.4 °F 41.1 °F 19.4 °F 34% 29.68 in 10.0 mi South 11.5 mph 18.4 mph N/A   Clear
9:35 PM 46.4 °F 41.9 °F 21.2 °F 37% 29.68 in 10.0 mi South 9.2 mph 16.1 mph N/A   Clear
9:55 PM 46.4 °F 40.4 °F 23.0 °F 40% 29.68 in 10.0 mi South 13.8 mph 19.6 mph N/A   Clear
10:15 PM 46.4 °F 40.1 °F 26.6 °F 46% 29.68 in 10.0 mi South 15.0 mph 25.3 mph N/A   Clear
10:35 PM 46.4 °F 41.1 °F 28.4 °F 50% 29.67 in 10.0 mi SSW 11.5 mph 28.8 mph N/A   Clear
10:55 PM 44.6 °F 37.2 °F 26.6 °F 49% 29.67 in 10.0 mi SSW 17.3 mph 20.7 mph N/A   Clear
11:15 PM 44.6 °F 37.8 °F 26.6 °F 49% 29.66 in 10.0 mi South 15.0 mph 20.7 mph N/A   Clear
11:55 PM 44.6 °F 37.4 °F 21.2 °F 39% 29.64 in 10.0 mi SSW 16.1 mph 28.8 mph N/A   Clear